Time,TemperatureF,DewpointF,PressureIn,WindDirection,WindDirectionDegrees,WindSpeedMPH,WindSpeedGustMPH,Humidity,HourlyPrecipIn,Conditions,Clouds,dailyrainin,SoftwareType,DateUTC
2013-01-04 00:03:00,32.0,18.0,30.04,NNW,328,3.0,5.0,55,0.00,,,0.00,,2013-01-04 05:03:00,
2013-01-04 00:12:00,32.0,18.0,30.04,NNW,328,3.0,5.0,55,0.00,,,0.00,,2013-01-04 05:12:00,
2013-01-04 00:22:00,32.0,18.0,30.04,North,358,1.0,5.0,55,0.00,,,0.00,,2013-01-04 05:22:00,
2013-01-04 00:33:00,32.0,18.0,30.03,NNW,347,4.0,5.0,56,0.00,,,0.00,,2013-01-04 05:33:00,
2013-01-04 00:42:00,32.0,18.0,30.03,NNW,347,4.0,5.0,56,0.00,,,0.00,,2013-01-04 05:42:00,
2013-01-04 00:53:00,32.0,18.0,30.03,NNW,327,0.0,8.0,56,0.00,,,0.00,,2013-01-04 05:53:00,
2013-01-04 01:02:00,32.0,19.0,30.03,NNW,347,2.0,6.0,57,0.00,,,0.00,,2013-01-04 06:02:00,
2013-01-04 01:12:00,32.0,19.0,30.03,NNW,347,2.0,6.0,57,0.00,,,0.00,,2013-01-04 06:12:00,
2013-01-04 01:22:00,32.0,19.0,30.03,NW,324,6.0,7.0,57,0.00,,,0.00,,2013-01-04 06:22:00,
2013-01-04 01:33:00,32.0,19.0,30.03,NNW,328,3.0,9.0,57,0.00,,,0.00,,2013-01-04 06:33:00,
2013-01-04 01:42:00,32.0,19.0,30.03,NNW,328,3.0,9.0,57,0.00,,,0.00,,2013-01-04 06:42:00,
2013-01-04 01:52:00,31.0,18.0,30.03,NNW,328,3.0,9.0,58,0.00,,,0.00,,2013-01-04 06:52:00,
2013-01-04 02:02:00,31.0,18.0,30.03,NNW,335,3.0,3.0,59,0.00,,,0.00,,2013-01-04 07:02:00,
2013-01-04 02:12:00,31.0,18.0,30.03,NNW,335,3.0,3.0,59,0.00,,,0.00,,2013-01-04 07:12:00,
2013-01-04 02:22:00,31.0,18.0,30.03,North,9,3.0,8.0,59,0.00,,,0.00,,2013-01-04 07:22:00,
2013-01-04 02:32:00,31.0,18.0,30.03,North,358,0.0,2.0,59,0.00,,,0.00,,2013-01-04 07:32:00,
2013-01-04 02:42:00,31.0,18.0,30.03,North,358,0.0,2.0,59,0.00,,,0.00,,2013-01-04 07:42:00,
2013-01-04 02:52:00,31.0,18.0,30.04,North,356,1.0,6.0,59,0.00,,,0.00,,2013-01-04 07:52:00,
2013-01-04 03:02:00,31.0,18.0,30.04,North,359,2.0,9.0,59,0.00,,,0.00,,2013-01-04 08:02:00,
2013-01-04 03:12:00,31.0,18.0,30.04,North,359,2.0,9.0,59,0.00,,,0.00,,2013-01-04 08:12:00,
2013-01-04 03:23:00,31.0,18.0,30.04,North,356,2.0,3.0,59,0.00,,,0.00,,2013-01-04 08:23:00,
2013-01-04 03:32:00,31.0,19.0,30.04,North,357,1.0,3.0,60,0.00,,,0.00,,2013-01-04 08:32:00,
2013-01-04 03:42:00,31.0,19.0,30.04,North,357,1.0,3.0,60,0.00,,,0.00,,2013-01-04 08:42:00,
2013-01-04 03:53:00,31.0,19.0,30.04,North,352,3.0,5.0,60,0.00,,,0.00,,2013-01-04 08:53:00,
2013-01-04 04:02:00,32.0,19.0,30.04,North,1,3.0,10.0,59,0.00,,,0.00,,2013-01-04 09:02:00,